| time (UTC) | temp F | wind direction | speed knots | gust knots | rain 1hr in | rain 24hr in | rain mn in | humidity % | barometer mb |
| 20260504010101 | 54 | 0 | 0.0 | 0.9 | 0.00 | 0.00 | 0.00 | 49 | 1012.3 |
| 20260504005600 | 54 | 0 | 0.0 | 0.9 | 0.00 | 0.00 | 0.00 | 48 | 1012.2 |
| 20260504005100 | 54 | 244 | 0.0 | 1.7 | 0.00 | 0.00 | 0.00 | 47 | 1012.2 |
| 20260504004559 | 55 | 244 | 0.9 | 1.7 | 0.00 | 0.00 | 0.00 | 47 | 1012.1 |
| 20260504004059 | 55 | 248 | 0.0 | 1.7 | 0.00 | 0.00 | 0.00 | 47 | 1012.1 |
| 20260504003600 | 55 | 238 | 0.0 | 1.7 | 0.00 | 0.00 | 0.00 | 48 | 1012.1 |
| 20260504003100 | 55 | 250 | 0.9 | 1.7 | 0.00 | 0.00 | 0.00 | 46 | 1012.1 |
| 20260504002600 | 55 | 243 | 0.9 | 1.7 | 0.00 | 0.00 | 0.00 | 45 | 1012.1 |
| 20260504002100 | 56 | 245 | 0.0 | 1.7 | 0.00 | 0.00 | 0.00 | 46 | 1012.1 |
| 20260504001600 | 56 | 247 | 0.0 | 1.7 | 0.00 | 0.00 | 0.00 | 46 | 1012.1 |
| 20260504001059 | 56 | 0 | 0.0 | 1.7 | 0.00 | 0.00 | 0.00 | 46 | 1012.1 |
| 20260504000559 | 56 | 260 | 0.9 | 1.7 | 0.00 | 0.00 | 0.00 | 44 | 1012.1 |
| 20260504000108 | 56 | 250 | 0.9 | 1.7 | 0.00 | 0.00 | 0.00 | 44 | 1012.1 |
| 20260503235600 | 56 | 252 | 0.9 | 1.7 | 0.00 | 0.00 | 0.00 | 44 | 1012.2 |
| 20260503235101 | 56 | 249 | 0.0 | 2.6 | 0.00 | 0.00 | 0.00 | 45 | 1012.3 |
| 20260503234559 | 57 | 250 | 0.9 | 2.6 | 0.00 | 0.00 | 0.00 | 44 | 1012.3 |
| 20260503234100 | 57 | 256 | 0.9 | 2.6 | 0.00 | 0.00 | 0.00 | 45 | 1012.2 |
| 20260503233601 | 57 | 252 | 0.9 | 3.5 | 0.00 | 0.00 | 0.00 | 43 | 1012.2 |
| 20260503233059 | 57 | 247 | 0.9 | 3.5 | 0.00 | 0.00 | 0.00 | 44 | 1012.3 |
| 20260503232559 | 57 | 276 | 0.9 | 2.6 | 0.00 | 0.00 | 0.00 | 43 | 1012.2 |
| 20260503232059 | 57 | 243 | 0.9 | 2.6 | 0.00 | 0.00 | 0.00 | 45 | 1012.3 |
| 20260503231559 | 57 | 268 | 0.9 | 2.6 | 0.00 | 0.00 | 0.00 | 44 | 1012.4 |
| 20260503231143 | 57 | 252 | 0.0 | 2.6 | 0.00 | 0.00 | 0.00 | 45 | 1012.4 |
| 20260503230601 | 57 | 250 | 0.0 | 1.7 | 0.00 | 0.00 | 0.00 | 45 | 1012.4 |
| 20260503230106 | 57 | 264 | 0.9 | 2.6 | 0.00 | 0.00 | 0.00 | 44 | 1012.4 |
| 20260503225600 | 57 | 281 | 0.9 | 2.6 | 0.00 | 0.00 | 0.00 | 43 | 1012.4 |
| 20260503225100 | 57 | 263 | 1.7 | 2.6 | 0.00 | 0.00 | 0.00 | 43 | 1012.4 |
| 20260503224606 | 57 | 275 | 0.9 | 2.6 | 0.00 | 0.00 | 0.00 | 42 | 1012.4 |
| 20260503224101 | 57 | 240 | 1.7 | 2.6 | 0.00 | 0.00 | 0.00 | 42 | 1012.4 |
| 20260503223601 | 57 | 159 | 0.9 | 2.6 | 0.00 | 0.00 | 0.00 | 45 | 1012.4 |
| 20260503223108 | 57 | 257 | 0.9 | 2.6 | 0.00 | 0.00 | 0.00 | 43 | 1012.6 |
| 20260503222559 | 57 | 240 | 0.9 | 2.6 | 0.00 | 0.00 | 0.00 | 42 | 1012.5 |
| 20260503222059 | 57 | 248 | 1.7 | 2.6 | 0.00 | 0.00 | 0.00 | 43 | 1012.7 |
| 20260503221609 | 57 | 279 | 0.9 | 4.3 | 0.00 | 0.00 | 0.00 | 43 | 1012.6 |
| 20260503221059 | 57 | 237 | 1.7 | 4.3 | 0.00 | 0.00 | 0.00 | 41 | 1012.5 |
| 20260503220559 | 58 | 247 | 1.7 | 4.3 | 0.00 | 0.00 | 0.00 | 41 | 1012.4 |
| 20260503220100 | 58 | 266 | 1.7 | 3.5 | 0.00 | 0.00 | 0.00 | 43 | 1012.6 |
| 20260503215559 | 58 | 248 | 1.7 | 3.5 | 0.00 | 0.00 | 0.00 | 42 | 1012.6 |
| 20260503215059 | 58 | 229 | 1.7 | 4.3 | 0.00 | 0.00 | 0.00 | 43 | 1012.7 |
| 20260503214558 | 58 | 286 | 1.7 | 4.3 | 0.00 | 0.00 | 0.00 | 42 | 1012.7 |
| 20260503214100 | 58 | 234 | 1.7 | 3.5 | 0.00 | 0.00 | 0.00 | 40 | 1012.5 |
| 20260503213559 | 58 | 224 | 1.7 | 3.5 | 0.00 | 0.00 | 0.00 | 41 | 1012.5 |
| 20260503213103 | 58 | 248 | 1.7 | 4.3 | 0.00 | 0.00 | 0.00 | 42 | 1012.5 |
| 20260503212600 | 58 | 252 | 1.7 | 4.3 | 0.00 | 0.00 | 0.00 | 41 | 1012.4 |
| 20260503212059 | 58 | 244 | 0.9 | 4.3 | 0.00 | 0.00 | 0.00 | 43 | 1012.5 |
| 20260503211602 | 58 | 228 | 1.7 | 4.3 | 0.00 | 0.00 | 0.00 | 41 | 1012.4 |
| 20260503211059 | 59 | 249 | 0.9 | 3.5 | 0.00 | 0.00 | 0.00 | 43 | 1012.5 |
| 20260503210559 | 59 | 243 | 1.7 | 2.6 | 0.00 | 0.00 | 0.00 | 43 | 1012.4 |
| 20260503210058 | 59 | 238 | 0.9 | 2.6 | 0.00 | 0.00 | 0.00 | 40 | 1012.4 |
| 20260503205600 | 59 | 241 | 0.0 | 3.5 | 0.00 | 0.00 | 0.00 | 40 | 1012.3 |
| 20260503205100 | 60 | 255 | 1.7 | 3.5 | 0.00 | 0.00 | 0.00 | 40 | 1012.5 |
| 20260503204620 | 60 | 266 | 0.9 | 3.5 | 0.00 | 0.00 | 0.00 | 40 | 1012.4 |
| 20260503204059 | 59 | 257 | 0.9 | 4.3 | 0.00 | 0.00 | 0.00 | 44 | 1012.4 |
| 20260503203559 | 58 | 273 | 1.7 | 4.3 | 0.00 | 0.00 | 0.00 | 40 | 1012.5 |
| 20260503203102 | 58 | 240 | 1.7 | 4.3 | 0.00 | 0.00 | 0.00 | 43 | 1012.7 |
| 20260503202600 | 59 | 255 | 0.9 | 4.3 | 0.00 | 0.00 | 0.00 | 38 | 1012.6 |
| 20260503202102 | 59 | 251 | 0.9 | 4.3 | 0.00 | 0.00 | 0.00 | 39 | 1012.7 |
| 20260503201558 | 59 | 236 | 1.7 | 4.3 | 0.00 | 0.00 | 0.00 | 39 | 1012.8 |
| 20260503201100 | 59 | 261 | 1.7 | 3.5 | 0.00 | 0.00 | 0.00 | 39 | 1012.9 |
| 20260503200559 | 58 | 283 | 1.7 | 4.3 | 0.00 | 0.00 | 0.00 | 40 | 1012.9 |
| 20260503200101 | 58 | 259 | 1.7 | 4.3 | 0.00 | 0.00 | 0.00 | 40 | 1013.1 |
| 20260503195600 | 58 | 252 | 1.7 | 3.5 | 0.00 | 0.00 | 0.00 | 41 | 1013.1 |
| 20260503195059 | 58 | 267 | 1.7 | 3.5 | 0.00 | 0.00 | 0.00 | 41 | 1013.3 |
| 20260503194609 | 58 | 261 | 1.7 | 3.5 | 0.00 | 0.00 | 0.00 | 39 | 1013.3 |
| 20260503194059 | 59 | 254 | 1.7 | 3.5 | 0.00 | 0.00 | 0.00 | 39 | 1013.4 |
| 20260503193559 | 59 | 290 | 1.7 | 6.1 | 0.00 | 0.00 | 0.00 | 38 | 1013.5 |
| 20260503193118 | 59 | 231 | 1.7 | 6.1 | 0.00 | 0.00 | 0.00 | 40 | 1013.6 |
| 20260503192559 | 60 | 250 | 2.6 | 4.3 | 0.00 | 0.00 | 0.00 | 39 | 1013.6 |
| 20260503192100 | 59 | 244 | 0.9 | 4.3 | 0.00 | 0.00 | 0.00 | 39 | 1013.6 |
| 20260503191618 | 60 | 261 | 0.9 | 5.2 | 0.00 | 0.00 | 0.00 | 40 | 1013.7 |
| 20260503191101 | 60 | 245 | 2.6 | 5.2 | 0.00 | 0.00 | 0.00 | 38 | 1013.8 |
| 20260503190600 | 59 | 245 | 1.7 | 4.3 | 0.00 | 0.00 | 0.00 | 38 | 1013.9 |
| 20260503190057 | 59 | 251 | 1.7 | 4.3 | 0.00 | 0.00 | 0.00 | 39 | 1013.9 |
| 20260503185603 | 58 | 259 | 2.6 | 4.3 | 0.00 | 0.00 | 0.00 | 40 | 1014.0 |
| 20260503185100 | 58 | 250 | 2.6 | 4.3 | 0.00 | 0.00 | 0.00 | 40 | 1014.0 |
| 20260503184607 | 59 | 243 | 1.7 | 5.2 | 0.00 | 0.00 | 0.00 | 42 | 1014.0 |
| 20260503184059 | 58 | 238 | 2.6 | 5.2 | 0.00 | 0.00 | 0.00 | 40 | 1014.1 |
| 20260503183602 | 58 | 278 | 1.7 | 3.5 | 0.00 | 0.00 | 0.00 | 40 | 1014.1 |
| 20260503183058 | 58 | 233 | 1.7 | 3.5 | 0.00 | 0.00 | 0.00 | 42 | 1014.2 |
| 20260503182559 | 58 | 245 | 1.7 | 3.5 | 0.00 | 0.00 | 0.00 | 41 | 1014.2 |
| 20260503182104 | 58 | 282 | 0.9 | 4.3 | 0.00 | 0.00 | 0.00 | 42 | 1014.2 |
| 20260503181559 | 58 | 243 | 1.7 | 4.3 | 0.00 | 0.00 | 0.00 | 41 | 1014.4 |
| 20260503181100 | 58 | 231 | 0.9 | 4.3 | 0.00 | 0.00 | 0.00 | 45 | 1014.4 |
| 20260503180603 | 58 | 254 | 1.7 | 5.2 | 0.00 | 0.00 | 0.00 | 39 | 1014.4 |
| 20260503175559 | 58 | 268 | 1.7 | 4.3 | 0.00 | 0.00 | 0.00 | 44 | 1014.4 |
| 20260503175100 | 58 | 252 | 2.6 | 4.3 | 0.00 | 0.00 | 0.00 | 42 | 1014.5 |
| 20260503174604 | 58 | 248 | 1.7 | 3.5 | 0.00 | 0.00 | 0.00 | 41 | 1014.6 |
| 20260503174059 | 58 | 252 | 0.9 | 4.3 | 0.00 | 0.00 | 0.00 | 42 | 1014.7 |
| 20260503173559 | 58 | 261 | 0.9 | 4.3 | 0.00 | 0.00 | 0.00 | 40 | 1014.6 |
| 20260503173106 | 58 | 257 | 0.9 | 4.3 | 0.00 | 0.00 | 0.00 | 41 | 1014.6 |
| 20260503172559 | 57 | 252 | 1.7 | 4.3 | 0.00 | 0.00 | 0.00 | 41 | 1014.7 |
| 20260503172101 | 58 | 285 | 0.9 | 4.3 | 0.00 | 0.00 | 0.00 | 41 | 1014.7 |
| 20260503171100 | 57 | 221 | 0.9 | 4.3 | 0.00 | 0.00 | 0.00 | 43 | 1015.0 |
| 20260503170601 | 57 | 269 | 1.7 | 4.3 | 0.00 | 0.00 | 0.00 | 42 | 1015.1 |
| 20260503170118 | 57 | 262 | 0.9 | 3.5 | 0.00 | 0.00 | 0.00 | 44 | 1015.1 |
| 20260503160109 | 54 | 239 | 2.6 | 4.3 | 0.00 | 0.00 | 0.00 | 44 | 1015.8 |
| 20260503150600 | 52 | 252 | 0.9 | 2.6 | 0.00 | 0.00 | 0.00 | 47 | 1016.1 |
| 20260503131100 | 44 | 239 | 0.9 | 1.7 | 0.00 | 0.00 | 0.00 | 58 | 1016.7 |
| 20260503130600 | 44 | 265 | 0.0 | 1.7 | 0.00 | 0.00 | 0.00 | 60 | 1016.6 |
| 20260503110600 | 32 | 0 | 0.0 | 0.0 | 0.00 | 0.02 | 0.00 | 93 | 1016.1 |
| 20260503110104 | 32 | 0 | 0.0 | 0.0 | 0.00 | 0.02 | 0.00 | 93 | 1016.1 |
| 20260503100106 | 31 | 0 | 0.0 | 0.0 | 0.00 | 0.06 | 0.00 | 92 | 1015.8 |
| 20260503081600 | 32 | 0 | 0.0 | 0.0 | 0.00 | 0.09 | 0.00 | 91 | 1015.9 |
| 20260503081100 | 32 | 0 | 0.0 | 0.0 | 0.00 | 0.09 | 0.00 | 91 | 1016.0 |
| 20260503080600 | 32 | 0 | 0.0 | 0.0 | 0.00 | 0.09 | 0.00 | 91 | 1016.0 |
| 20260503080106 | 32 | 0 | 0.0 | 0.0 | 0.00 | 0.09 | 0.00 | 91 | 1016.0 |
| 20260503072601 | 33 | 0 | 0.0 | 0.0 | 0.00 | 0.10 | 0.00 | 91 | 1015.9 |
| 20260503072101 | 33 | 0 | 0.0 | 0.0 | 0.00 | 0.10 | 0.00 | 91 | 1015.9 |
| 20260503071615 | 33 | 0 | 0.0 | 0.0 | 0.00 | 0.10 | 0.00 | 91 | 1015.9 |
| 20260503071100 | 33 | 0 | 0.0 | 0.0 | 0.00 | 0.10 | 0.00 | 90 | 1016.0 |
| 20260503070600 | 33 | 0 | 0.0 | 0.0 | 0.00 | 0.10 | 0.00 | 90 | 1016.0 |
| 20260503055100 | 34 | 0 | 0.0 | 0.0 | 0.00 | 0.13 | 0.00 | 88 | 1016.3 |
| 20260503054613 | 34 | 0 | 0.0 | 0.0 | 0.00 | 0.13 | 0.00 | 88 | 1016.3 |
| 20260503054100 | 35 | 0 | 0.0 | 0.0 | 0.00 | 0.13 | 0.00 | 88 | 1016.3 |
| 20260503053600 | 35 | 0 | 0.0 | 0.0 | 0.00 | 0.13 | 0.00 | 87 | 1016.3 |
| 20260503053057 | 35 | 0 | 0.0 | 0.0 | 0.00 | 0.13 | 0.00 | 87 | 1016.3 |
| 20260503052600 | 35 | 0 | 0.0 | 0.0 | 0.00 | 0.13 | 0.00 | 87 | 1016.4 |
| 20260503052100 | 35 | 0 | 0.0 | 0.0 | 0.00 | 0.13 | 0.00 | 86 | 1016.3 |
| 20260503051603 | 36 | 0 | 0.0 | 0.0 | 0.00 | 0.13 | 0.00 | 85 | 1016.4 |
| 20260503051102 | 36 | 0 | 0.0 | 0.0 | 0.00 | 0.13 | 0.00 | 85 | 1016.4 |
| 20260503050600 | 36 | 0 | 0.0 | 0.0 | 0.00 | 0.13 | 0.00 | 85 | 1016.4 |
| 20260503050058 | 36 | 0 | 0.0 | 0.0 | 0.00 | 0.13 | 0.00 | 84 | 1016.5 |
| 20260503045601 | 36 | 0 | 0.0 | 0.0 | 0.00 | 0.13 | 0.00 | 84 | 1016.5 |
| 20260503045101 | 37 | 0 | 0.0 | 0.0 | 0.00 | 0.13 | 0.00 | 83 | 1016.4 |
| 20260503044558 | 37 | 0 | 0.0 | 0.0 | 0.00 | 0.13 | 0.00 | 83 | 1016.5 |
| 20260503044100 | 37 | 0 | 0.0 | 0.0 | 0.00 | 0.13 | 0.00 | 82 | 1016.5 |
| 20260503043600 | 37 | 0 | 0.0 | 0.0 | 0.00 | 0.13 | 0.00 | 83 | 1016.4 |
| 20260503043100 | 37 | 0 | 0.0 | 0.0 | 0.00 | 0.13 | 0.00 | 82 | 1016.5 |
| 20260503042600 | 38 | 0 | 0.0 | 0.0 | 0.00 | 0.13 | 0.00 | 82 | 1016.5 |
| 20260503042143 | 38 | 0 | 0.0 | 0.0 | 0.00 | 0.13 | 0.00 | 83 | 1016.5 |
| 20260503041559 | 38 | 0 | 0.0 | 0.0 | 0.00 | 0.13 | 0.00 | 83 | 1016.5 |
| 20260503041104 | 38 | 0 | 0.0 | 0.0 | 0.00 | 0.13 | 0.00 | 83 | 1016.6 |
| 20260503040559 | 38 | 0 | 0.0 | 0.0 | 0.00 | 0.13 | 0.00 | 82 | 1016.6 |
| 20260503040058 | 38 | 0 | 0.0 | 0.0 | 0.00 | 0.13 | 0.00 | 82 | 1016.6 |
| 20260503035601 | 38 | 0 | 0.0 | 0.0 | 0.00 | 0.13 | 0.13 | 83 | 1016.7 |
| 20260503035103 | 38 | 0 | 0.0 | 0.0 | 0.00 | 0.13 | 0.13 | 83 | 1016.6 |
| 20260503034559 | 38 | 0 | 0.0 | 0.0 | 0.00 | 0.13 | 0.13 | 81 | 1016.6 |
| 20260503034100 | 38 | 0 | 0.0 | 0.0 | 0.00 | 0.13 | 0.13 | 81 | 1016.6 |
| 20260503033600 | 38 | 0 | 0.0 | 0.0 | 0.00 | 0.13 | 0.13 | 83 | 1016.6 |
| 20260503033104 | 38 | 0 | 0.0 | 0.0 | 0.00 | 0.13 | 0.13 | 82 | 1016.7 |
| 20260503032600 | 38 | 0 | 0.0 | 0.0 | 0.00 | 0.13 | 0.13 | 82 | 1016.6 |
| 20260503032100 | 38 | 0 | 0.0 | 0.0 | 0.00 | 0.13 | 0.13 | 82 | 1016.7 |
| 20260503031600 | 38 | 0 | 0.0 | 0.0 | 0.00 | 0.13 | 0.13 | 81 | 1016.8 |
| 20260503031103 | 38 | 0 | 0.0 | 0.0 | 0.00 | 0.13 | 0.13 | 81 | 1016.7 |
| 20260503030559 | 38 | 0 | 0.0 | 0.0 | 0.00 | 0.13 | 0.13 | 81 | 1016.8 |
| 20260503025600 | 39 | 0 | 0.0 | 0.0 | 0.00 | 0.13 | 0.13 | 80 | 1016.8 |
| 20260503025100 | 39 | 0 | 0.0 | 0.0 | 0.00 | 0.13 | 0.13 | 79 | 1016.9 |
| 20260503024600 | 39 | 0 | 0.0 | 0.0 | 0.00 | 0.13 | 0.13 | 79 | 1017.0 |
| 20260503024100 | 39 | 0 | 0.0 | 0.0 | 0.00 | 0.13 | 0.13 | 80 | 1017.0 |
| 20260503023600 | 39 | 0 | 0.0 | 0.0 | 0.00 | 0.13 | 0.13 | 80 | 1017.1 |
| 20260503023100 | 39 | 0 | 0.0 | 0.0 | 0.00 | 0.13 | 0.13 | 81 | 1017.0 |
| 20260503022602 | 39 | 0 | 0.0 | 0.0 | 0.00 | 0.13 | 0.13 | 81 | 1017.0 |
| 20260503022103 | 39 | 0 | 0.0 | 0.0 | 0.00 | 0.13 | 0.13 | 81 | 1017.2 |
| 20260503021600 | 39 | 0 | 0.0 | 0.0 | 0.00 | 0.13 | 0.13 | 80 | 1017.0 |
| 20260503021100 | 39 | 0 | 0.0 | 0.0 | 0.00 | 0.13 | 0.13 | 80 | 1017.1 |
| 20260503020600 | 39 | 0 | 0.0 | 0.0 | 0.00 | 0.13 | 0.13 | 81 | 1017.2 |
| 20260503020059 | 39 | 0 | 0.0 | 0.0 | 0.00 | 0.13 | 0.13 | 80 | 1017.1 |
| 20260503015601 | 39 | 0 | 0.0 | 0.0 | 0.00 | 0.13 | 0.13 | 79 | 1017.1 |
| 20260503015100 | 39 | 0 | 0.0 | 0.0 | 0.00 | 0.13 | 0.13 | 78 | 1017.1 |
| 20260503014603 | 39 | 0 | 0.0 | 0.0 | 0.00 | 0.13 | 0.13 | 78 | 1017.0 |
| 20260503014103 | 39 | 0 | 0.0 | 0.0 | 0.00 | 0.13 | 0.13 | 77 | 1017.0 |
| 20260503013600 | 39 | 0 | 0.0 | 0.0 | 0.00 | 0.13 | 0.13 | 76 | 1017.0 |
| 20260503013057 | 40 | 0 | 0.0 | 0.0 | 0.00 | 0.13 | 0.13 | 76 | 1017.0 |
| 20260503012602 | 40 | 0 | 0.0 | 0.0 | 0.00 | 0.13 | 0.13 | 75 | 1017.0 |
| 20260503012059 | 40 | 0 | 0.0 | 0.0 | 0.00 | 0.13 | 0.13 | 72 | 1017.0 |
| 20260503011600 | 40 | 0 | 0.0 | 0.0 | 0.00 | 0.13 | 0.13 | 71 | 1017.0 |
| 20260503011100 | 40 | 0 | 0.0 | 0.0 | 0.00 | 0.13 | 0.13 | 71 | 1017.0 |
| 20260503010600 | 40 | 0 | 0.0 | 0.0 | 0.00 | 0.13 | 0.13 | 71 | 1017.0 |